Погода в Зарайском

Россия / Ивановская область     56°58′45″N   42°56′30″E
темп.,
°C
ветер,
м/с
пор.,
м/с
влажн.,
%
обл.,
%
осадки,
мм/ч
давл.,
гПа
погр.,
м
22 мая, вс
вс2200:00+2ссв357067 0.0 1009121
03:000св47815 0.0 1008165
06:00+2ссв56715 0.0 1007591
09:00+4с565744 0.0 10061179
12:00+4ссв665798 0.0 10051415
15:00+5с565597 0.0 10051573
18:00+4с575899 0.1 10051322
21:00+2ссз4871100 0.1 1004391
23 мая, пн
пн2300:000сз48845 0.0 1003248
03:00−2сз489317 0.0 1003218
06:000сз5780100 0.0 1002460
09:00+3сз6769100 0.1 10011081
12:00+4зсз6973100 0.3 10001197
15:00+5сз7973100 0.6 10001128
18:00+3сз71178100 0.3 10001117
21:00+2зсз61095100 0.6 1000729
24 мая, вт
вт2400:00+1з51099100 1.0 999373
03:00+1ссз579799 1.9 1000583
06:00+1сз5792100 0.1 1001527
09:00+3сз5679100 0.3 10021049
12:00+5ссз457197 0.4 10051274
15:00+6ссз456882 0.8 1006991
18:00+6сз4575100 0.4 1007857
21:00+3сз489360 0.7 1009201
25 мая, ср
ср2500:00+1сз479613 0.0 1010175
03:000зсз479770 0.0 1011148
06:00+2зсз5893100 0.0 1011284
09:00+5зсз6889100 0.0 1012698
12:00+8зсз6872100 0.1 10111188
15:00+6с5992100 1.3 1012926
18:00+6сз489394 0.4 1013669
21:00+5сз239392 0.5 1013123
26 мая, чт
чт2600:00+5з349285 0.2 1012126
03:00+2з359443 0.2 101286
06:00+5з4593100 0.2 1011627
09:00+4з3397100 1.1 1010601
12:00+5зюз3392100 0.2 1009689
15:00+8з337968 0.3 1007768
18:00+9всв116983 0.0 1005505
21:00+5юв3487100 0.0 100372